When you browse on this site, cookies collect data to enhance your experience and personalize the content and advertising you see.
Visit our Privacy Policy to learn more. By continuing to use the site, you agree to this use of cookies and data.
  • In Austria
  • List of Countries
  • For 7 days
  • Water Temperature
  • Weather Map
  • News
  • Weather Widgets
  • user-avatar
    Login

    Hourly Weather Tasbulak

    Today, 24 January, Friday

    Time Temperature Precipitation Wind Pressure Humidity
    00:00 -5°C° 0.2 mm 2 mps 724 mmHg 96%
    01:00 -5°C° 0.2 mm 2 mps 724 mmHg 97%
    02:00 -6°C° 0.2 mm 3 mps 724 mmHg 96%
    03:00 -7°C° 0.2 mm 4 mps 725 mmHg 95%
    04:00 -7°C° 0 mm 4 mps 724 mmHg 95%
    05:00 -8°C° 0.1 mm 4 mps 725 mmHg 95%
    06:00 -9°C° 0.1 mm 4 mps 725 mmHg 95%
    07:00 -9°C° 0.1 mm 3 mps 725 mmHg 95%
    08:00 -10°C° 0.1 mm 4 mps 726 mmHg 94%
    09:00 -10°C° 0.1 mm 4 mps 726 mmHg 94%
    10:00 -10°C° 0.1 mm 5 mps 727 mmHg 93%
    11:00 -11°C° 0 mm 5 mps 727 mmHg 93%
    12:00 -10°C° 0 mm 4 mps 728 mmHg 92%
    13:00 -10°C° 0 mm 4 mps 728 mmHg 92%
    14:00 -11°C° 0 mm 4 mps 728 mmHg 92%
    15:00 -12°C° 0 mm 4 mps 729 mmHg 93%
    16:00 -12°C° 0 mm 3 mps 729 mmHg 93%
    17:00 -15°C° 0 mm 4 mps 729 mmHg 93%
    18:00 -16°C° 0 mm 4 mps 730 mmHg 94%
    19:00 -17°C° 0 mm 4 mps 730 mmHg 94%
    20:00 -18°C° 0 mm 4 mps 731 mmHg 93%
    21:00 -19°C° 0 mm 4 mps 732 mmHg 93%
    22:00 -19°C° 0 mm 4 mps 732 mmHg 92%
    23:00 -20°C° 0 mm 4 mps 732 mmHg 93%

    Tomorrow, 25 January, Saturday

    Time Temperature Precipitation Wind Pressure Humidity
    00:00 -19°C° 0 mm 3 mps 733 mmHg 94%
    01:00 -21°C° 0 mm 3 mps 733 mmHg 94%
    02:00 -22°C° 0 mm 4 mps 733 mmHg 95%
    03:00 -23°C° 0 mm 4 mps 733 mmHg 96%
    04:00 -23°C° 0 mm 4 mps 733 mmHg 97%
    05:00 -23°C° 0 mm 4 mps 733 mmHg 97%
    06:00 -23°C° 0 mm 4 mps 733 mmHg 97%
    07:00 -24°C° 0 mm 4 mps 733 mmHg 98%
    08:00 -22°C° 0 mm 5 mps 733 mmHg 96%
    09:00 -21°C° 0 mm 5 mps 733 mmHg 94%
    10:00 -21°C° 0 mm 6 mps 733 mmHg 92%
    11:00 -20°C° 0 mm 6 mps 732 mmHg 89%
    12:00 -18°C° 0 mm 7 mps 732 mmHg 86%
    13:00 -16°C° 0 mm 8 mps 731 mmHg 84%
    14:00 -16°C° 0.2 mm 8 mps 731 mmHg 86%
    15:00 -15°C° 0.2 mm 8 mps 731 mmHg 88%
    16:00 -14°C° 0.2 mm 9 mps 730 mmHg 91%
    17:00 -14°C° 0.1 mm 9 mps 730 mmHg 90%
    18:00 -13°C° 0.1 mm 8 mps 729 mmHg 89%
    19:00 -13°C° 0.1 mm 8 mps 729 mmHg 88%
    20:00 -12°C° 0 mm 8 mps 728 mmHg 89%
    21:00 -12°C° 0 mm 7 mps 728 mmHg 90%
    22:00 -11°C° 0 mm 7 mps 728 mmHg 90%
    23:00 -11°C° 0 mm 7 mps 727 mmHg 91%

    Day after tomorrow, 26 January, Sunday

    Time Temperature Precipitation Wind Pressure Humidity
    00:00 -9°C° 0 mm 7 mps 727 mmHg 91%
    01:00 -9°C° 0 mm 7 mps 727 mmHg 92%
    02:00 -9°C° 0.1 mm 7 mps 726 mmHg 92%
    03:00 -8°C° 0.1 mm 7 mps 725 mmHg 92%
    04:00 -8°C° 0.1 mm 8 mps 725 mmHg 92%
    05:00 -8°C° 0.3 mm 8 mps 724 mmHg 93%
    06:00 -7°C° 0.3 mm 8 mps 724 mmHg 94%
    07:00 -8°C° 0.3 mm 9 mps 723 mmHg 94%
    08:00 -8°C° 0.5 mm 9 mps 722 mmHg 94%
    09:00 -6°C° 0.5 mm 9 mps 722 mmHg 95%
    10:00 -7°C° 0.5 mm 10 mps 721 mmHg 95%
    11:00 -7°C° 0.3 mm 10 mps 720 mmHg 94%
    12:00 -5°C° 0.3 mm 10 mps 720 mmHg 93%
    13:00 -5°C° 0.3 mm 9 mps 719 mmHg 93%
    14:00 -6°C° 0.2 mm 9 mps 719 mmHg 89%
    15:00 -6°C° 0.2 mm 9 mps 719 mmHg 86%
    16:00 -8°C° 0.2 mm 9 mps 720 mmHg 82%
    17:00 -10°C° 0 mm 8 mps 720 mmHg 85%
    18:00 -11°C° 0 mm 7 mps 720 mmHg 87%
    19:00 -12°C° 0 mm 6 mps 720 mmHg 90%
    20:00 -12°C° 0 mm 5 mps 721 mmHg 91%
    21:00 -12°C° 0 mm 5 mps 721 mmHg 92%
    22:00 -13°C° 0 mm 5 mps 721 mmHg 93%
    23:00 -11°C° 0.2 mm 6 mps 722 mmHg 91%

    27 January, Monday

    Time Temperature Precipitation Wind Pressure Humidity
    00:00 -11°C° 0.2 mm 7 mps 723 mmHg 89%
    01:00 -10°C° 0.2 mm 8 mps 724 mmHg 87%
    02:00 -12°C° 0 mm 8 mps 725 mmHg 86%
    03:00 -14°C° 0 mm 7 mps 726 mmHg 85%
    04:00 -16°C° 0 mm 6 mps 727 mmHg 84%
    05:00 -17°C° 0 mm 6 mps 728 mmHg 86%
    06:00 -18°C° 0 mm 5 mps 728 mmHg 88%
    07:00 -19°C° 0 mm 5 mps 729 mmHg 90%
    08:00 -19°C° 0 mm 5 mps 730 mmHg 89%
    09:00 -17°C° 0 mm 4 mps 730 mmHg 89%
    10:00 -17°C° 0 mm 4 mps 731 mmHg 88%
    11:00 -17°C° 0 mm 5 mps 731 mmHg 88%
    12:00 -15°C° 0 mm 5 mps 731 mmHg 87%
    13:00 -15°C° 0 mm 6 mps 732 mmHg 86%
    14:00 -14°C° 0 mm 5 mps 732 mmHg 87%
    15:00 -14°C° 0 mm 5 mps 732 mmHg 88%
    16:00 -14°C° 0 mm 5 mps 732 mmHg 89%
    17:00 -14°C° 0.1 mm 5 mps 732 mmHg 91%
    18:00 -13°C° 0.1 mm 5 mps 732 mmHg 92%
    19:00 -14°C° 0.1 mm 6 mps 732 mmHg 94%
    20:00 -13°C° 0.1 mm 5 mps 731 mmHg 94%
    21:00 -11°C° 0.1 mm 4 mps 731 mmHg 94%
    22:00 -10°C° 0.1 mm 3 mps 731 mmHg 94%
    23:00 -10°C° 0.1 mm 3 mps 730 mmHg 95%

    28 January, Tuesday

    Time Temperature Precipitation Wind Pressure Humidity
    00:00 -9°C° 0.1 mm 2 mps 730 mmHg 95%
    01:00 -8°C° 0.1 mm 1 mps 730 mmHg 96%
    02:00 -10°C° 0.1 mm 2 mps 731 mmHg 95%
    03:00 -14°C° 0.1 mm 3 mps 731 mmHg 93%
    04:00 -16°C° 0.1 mm 4 mps 732 mmHg 92%
    05:00 -15°C° 0 mm 3 mps 733 mmHg 92%
    06:00 -16°C° 0 mm 3 mps 734 mmHg 92%
    07:00 -17°C° 0 mm 3 mps 734 mmHg 92%
    08:00 -17°C° 0 mm 3 mps 735 mmHg 92%
    09:00 -16°C° 0 mm 3 mps 736 mmHg 91%
    10:00 -16°C° 0 mm 3 mps 737 mmHg 91%
    11:00 -16°C° 0 mm 3 mps 738 mmHg 90%
    12:00 -15°C° 0 mm 3 mps 738 mmHg 89%
    13:00 -15°C° 0 mm 3 mps 739 mmHg 89%
    14:00 -15°C° 0 mm 2 mps 740 mmHg 88%
    15:00 -15°C° 0 mm 2 mps 740 mmHg 87%
    16:00 -16°C° 0 mm 2 mps 741 mmHg 87%
    17:00 -17°C° 0 mm 2 mps 742 mmHg 87%
    18:00 -18°C° 0 mm 2 mps 742 mmHg 88%
    19:00 -19°C° 0 mm 2 mps 743 mmHg 88%
    20:00 -19°C° 0 mm 2 mps 743 mmHg 88%
    21:00 -18°C° 0 mm 1 mps 744 mmHg 87%
    22:00 -18°C° 0 mm 1 mps 744 mmHg 87%
    23:00 -18°C° 0 mm 1 mps 744 mmHg 85%

    29 January, Wednesday

    Time Temperature Precipitation Wind Pressure Humidity
    00:00 -19°C° 0 mm 1 mps 745 mmHg 83%
    01:00 -19°C° 0 mm 1 mps 745 mmHg 81%
    02:00 -20°C° 0 mm 1 mps 745 mmHg 79%
    03:00 -20°C° 0 mm 1 mps 745 mmHg 77%
    04:00 -20°C° 0 mm 1 mps 746 mmHg 76%
    05:00 -21°C° 0 mm 1 mps 746 mmHg 75%
    06:00 -21°C° 0 mm 1 mps 746 mmHg 74%
    07:00 -21°C° 0 mm 1 mps 747 mmHg 73%
    08:00 -21°C° 0 mm 1 mps 747 mmHg 75%
    09:00 -20°C° 0 mm 1 mps 748 mmHg 77%
    10:00 -21°C° 0 mm 2 mps 748 mmHg 80%
    11:00 -18°C° 0 mm 1 mps 748 mmHg 81%
    12:00 -18°C° 0 mm 1 mps 749 mmHg 81%
    13:00 -17°C° 0 mm 1 mps 749 mmHg 82%
    14:00 -18°C° 0 mm 1 mps 749 mmHg 82%
    15:00 -20°C° 0 mm 2 mps 749 mmHg 82%
    16:00 -21°C° 0 mm 2 mps 749 mmHg 82%
    17:00 -23°C° 0 mm 2 mps 750 mmHg 82%
    18:00 -23°C° 0 mm 2 mps 750 mmHg 82%
    19:00 -24°C° 0 mm 2 mps 751 mmHg 82%
    20:00 -24°C° 0 mm 2 mps 751 mmHg 83%
    21:00 -26°C° 0 mm 3 mps 751 mmHg 83%
    22:00 -26°C° 0 mm 3 mps 751 mmHg 83%
    23:00 -26°C° 0 mm 3 mps 751 mmHg 84%
    Show more